Date,TemperatureHighF,TemperatureAvgF,TemperatureLowF,DewpointHighF,DewpointAvgF,DewpointLowF,HumidityHigh,HumidityAvg,HumidityLow,PressureMaxIn,PressureMinIn,WindSpeedMaxMPH,WindSpeedAvgMPH,GustSpeedMaxMPH,PrecipitationSumIn
2013-10-1,73,60,50,62,56,49,97,86,58,30.51,30.24,2,0,3,0.00
2013-10-2,78,63,56,63,58,54,96,84,54,30.50,30.15,2,0,3,0.00
2013-10-3,79,64,58,63,59,56,95,84,52,30.46,30.13,4,0,5,0.00
2013-10-4,79,64,55,64,58,53,97,84,50,30.54,30.13,2,0,4,0.00
2013-10-5,82,65,57,66,60,55,96,84,53,30.46,30.02,4,0,5,0.00
2013-10-6,79,65,56,67,59,54,96,83,55,30.36,29.94,5,0,9,0.32
2013-10-7,71,63,52,63,57,48,96,83,46,30.35,30.00,4,0,4,0.69
2013-10-8,73,58,49,56,51,48,95,80,51,30.57,30.24,4,0,5,0.00
2013-10-9,73,57,50,57,51,48,96,83,55,30.67,30.24,3,0,6,0.00
2013-10-10,73,58,50,56,51,48,95,81,47,30.55,30.19,4,0,6,0.00
2013-10-11,74,57,49,56,50,47,96,81,44,30.55,30.15,3,0,4,0.00
2013-10-12,76,58,48,58,52,46,96,82,50,30.56,30.20,4,0,4,0.00
2013-10-13,73,61,50,60,55,48,94,82,57,30.59,30.30,2,0,4,0.00
2013-10-14,71,62,56,61,57,54,94,85,64,30.50,30.28,2,0,4,0.00
2013-10-15,69,60,54,58,54,51,94,82,61,30.49,30.21,4,1,7,0.00
2013-10-16,68,59,51,57,54,49,94,84,64,30.49,30.17,2,0,4,0.01
2013-10-17,66,61,56,63,59,54,94,92,90,30.23,30.10,4,0,6,0.19
2013-10-18,70,57,51,54,51,48,95,81,49,30.46,30.14,4,0,7,0.00
2013-10-19,62,54,46,53,48,40,94,81,47,30.39,30.22,4,0,6,0.00
2013-10-20,65,48,37,45,40,34,95,77,33,30.70,30.34,4,0,6,0.00
2013-10-21,66,50,37,51,43,33,95,81,50,30.72,30.30,6,1,8,0.00
2013-10-22,69,56,48,52,48,44,93,77,42,30.42,30.05,4,0,5,0.00
2013-10-23,56,46,35,46,35,26,92,67,41,30.55,30.13,8,1,14,0.00
2013-10-24,56,42,30,37,31,26,86,68,44,30.76,30.09,4,0,8,0.00
2013-10-25,51,40,29,35,23,16,78,55,26,31.03,30.63,4,0,6,0.00
2013-10-26,57,38,23,35,26,17,85,65,32,31.12,30.56,4,0,8,0.00
2013-10-27,65,53,40,48,42,34,84,68,48,30.66,30.32,4,1,7,0.00
2013-10-28,64,54,48,54,48,44,93,82,55,30.68,30.45,4,0,5,0.09
2013-10-29,66,54,47,52,48,45,93,82,51,30.75,30.46,2,0,4,0.00
2013-10-30,74,60,49,55,50,46,90,74,46,30.78,30.30,3,0,4,0.00
2013-10-31,66,61,52,59,53,49,90,76,59,30.53,30.05,8,2,11,0.00